This is the latest recevied weather packets stored in our database for station/object F4NFR-13. If no packets are shown the sender has not sent any weather packets the latest 1 day(s).
| Time | Temp. | Humidity | Pressure | Rain* | Wind** | Luminosity | Snow |
|---|---|---|---|---|---|---|---|
| 1778029813 | 10° C | 85% | 1012.7 hPa | 0 mm | 0.89 m/s, 14° | 0 W/m² | - |
| 1778029511 | 10° C | 85% | 1012.7 hPa | 0 mm | 2.24 m/s, 15° | 0 W/m² | - |
| 1778028906 | 10° C | 85% | 1012.7 hPa | 0 mm | 1.79 m/s, 8° | 0 W/m² | - |
| 1778028603 | 10° C | 85% | 1012.7 hPa | 0 mm | 3.13 m/s, 1° | 0 W/m² | - |
| 1778028301 | 10° C | 85% | 1012.7 hPa | 0 mm | 3.13 m/s, 16° | 0 W/m² | - |
| 1778027999 | 10° C | 85% | 1012.7 hPa | 0 mm | 0.89 m/s, 355° | 0 W/m² | - |
| 1778027696 | 10° C | 85% | 1012.7 hPa | 0 mm | 1.34 m/s, 31° | 0 W/m² | - |
| 1778027394 | 10° C | 85% | 1012.7 hPa | 0 mm | 1.79 m/s, 14° | 0 W/m² | - |
| 1778027091 | 8.89° C | 86% | 1012.7 hPa | 0 mm | 3.13 m/s, 42° | 0 W/m² | - |
| 1778026789 | 10° C | 85% | 1012.7 hPa | 0 mm | 1.34 m/s, 23° | 0 W/m² | - |
| 1778026487 | 10° C | 85% | 1012.7 hPa | 0 mm | 3.13 m/s, 34° | 0 W/m² | - |
| 1778026184 | 10° C | 85% | 1012.7 hPa | 0 mm | 2.24 m/s, 40° | 0 W/m² | - |
| 1778025882 | 10° C | 85% | 1012.7 hPa | 0 mm | 1.34 m/s, 31° | 0 W/m² | - |
| 1778025580 | 10° C | 85% | 1012.7 hPa | 0 mm | 2.68 m/s, 8° | 0 W/m² | - |
| 1778025277 | 10° C | 85% | 1012.7 hPa | 0 mm | 0.89 m/s, 45° | 0 W/m² | - |
| 1778024974 | 10° C | 85% | 1012.7 hPa | 0 mm | 1.79 m/s, 63° | 0 W/m² | - |
| 1778024672 | 10° C | 84% | 1012.7 hPa | 0 mm | 2.68 m/s, 66° | 0 W/m² | - |
| 1778024370 | 10° C | 84% | 1012.7 hPa | 0 mm | 2.68 m/s, 33° | 0 W/m² | - |
| 1778024068 | 10° C | 84% | 1012.7 hPa | 0 mm | 3.13 m/s, 29° | 0 W/m² | - |
| 1778023765 | 10° C | 84% | 1012.7 hPa | 0 mm | 1.34 m/s, 52° | 0 W/m² | - |
| 1778023463 | 10° C | 84% | 1012.7 hPa | 0 mm | 2.24 m/s, 52° | 0 W/m² | - |
| 1778023160 | 10° C | 84% | 1012.7 hPa | 0 mm | 1.34 m/s, 37° | 0 W/m² | - |
| 1778022556 | 10° C | 83% | 1012.7 hPa | 0 mm | 1.34 m/s, 66° | 0 W/m² | - |
| 1778022262 | 10° C | 82% | 1012.7 hPa | 0 mm | 1.79 m/s, 49° | 0 W/m² | - |
| 1778021950 | 10° C | 82% | 1012.7 hPa | 0 mm | 3.58 m/s, 29° | 0 W/m² | - |
* Rain latest hour (hover to see other rain measurements)
** Current wind speed in m/s (hover to see current wind gust speed)